Weather History for McMinnville, OR

Change the Weather History Date:

Friday, July 19, 2013

  Actual Average Record
Temperature  
Mean Temperature 70 °F 67 °F  
Max Temperature 88 °F 83 °F 106 °F (1956)
Min Temperature 52 °F 51 °F 38 °F (1962)
Degree Days  
Heating Degree Days 0 1  
Month to date heating degree days 10 33  
Since 1 July heating degree days 10 33  
Cooling Degree Days 5 3  
Month to date cooling degree days 77 41  
Year to date cooling degree days 130 63  
Growing Degree Days 20 (Base 50)    
Moisture  
Dew Point 54 °F    
Average Humidity 64    
Maximum Humidity 96    
Minimum Humidity 31    
Precipitation  
Precipitation 0.00 in 0.01 in 0.89 in (1983)
Month to date precipitation T 0.40  
Year to date precipitation 10.40 21.65  
Snow  
Snow 0.00 in - - ()
Month to date snowfall 0.0  
Since 1 June snowfall 0.0  
Snow Depth 0.00 in    
Sea Level Pressure  
Sea Level Pressure 30.09 in    
Wind  
Wind Speed 6 mph (WNW)    
Max Wind Speed 15 mph    
Max Gust Speed 20 mph    
Visibility 10 miles    
Events      
T = Trace of Precipitation, MM = Missing Value Source: NWS Daily Summary

Daily Weather History Graph

Daily Weather History Graph

Search for Another Location

Airport:

Trip Planner

Search our weather history database for the weather conditions in past years. The results will help you decide how hot, cold, wet, or windy it might be!

Date:

Astronomy

Jul. 19, 2013 Rise Set
Actual Time 5:43 AM PDT 8:53 PM PDT
Civil Twilight 5:08 AM PDT 9:28 PM PDT
Nautical Twilight 4:22 AM PDT 10:14 PM PDT
Astronomical Twilight 3:25 AM PDT 11:10 PM PDT
Moon 6:01 PM PDT (7/19) 2:30 AM PDT (7/19)
Length of Visible Light 16h 20m
Length of Day
15h 09m
Waxing Gibbous, 87% of the Moon is Illuminated
Jul 19
Waxing Gibbous
Jul 22
Full
Jul 29
Last Quarter
Aug 6
New
Aug 14
First Quarter

Hourly Weather History & Observations

Time (PDT) Temp. Heat Index Dew Point Humidity Pressure Visibility Wind Dir Wind Speed Gust Speed Precip Events Conditions
12:53 AM 57.9 °F - 53.1 °F 84% 30.12 in 10.0 mi WSW 4.6 mph - N/A   Clear
1:53 AM 57.0 °F - 52.0 °F 83% 30.12 in 10.0 mi West 5.8 mph - N/A   Clear
2:53 AM 55.9 °F - 52.0 °F 87% 30.13 in 10.0 mi West 5.8 mph - N/A   Clear
3:53 AM 54.0 °F - 51.1 °F 90% 30.13 in 10.0 mi WNW 3.5 mph - N/A   Clear
4:53 AM 53.1 °F - 50.0 °F 89% 30.14 in 10.0 mi West 3.5 mph - N/A   Clear
5:53 AM 52.0 °F - 50.0 °F 93% 30.14 in 10.0 mi West 3.5 mph - N/A   Clear
6:53 AM 54.0 °F - 51.1 °F 90% 30.15 in 10.0 mi West 4.6 mph - N/A   Clear
7:53 AM 57.9 °F - 53.1 °F 84% 30.16 in 10.0 mi Calm Calm - N/A   Clear
8:53 AM 63.0 °F - 54.0 °F 72% 30.15 in 10.0 mi Calm Calm - N/A   Clear
9:53 AM 66.9 °F - 55.9 °F 68% 30.14 in 10.0 mi Variable 3.5 mph - N/A   Clear
10:53 AM 69.1 °F - 57.0 °F 65% 30.13 in 10.0 mi ESE 4.6 mph - N/A   Clear
11:53 AM 72.0 °F - 57.9 °F 61% 30.12 in 10.0 mi Variable 3.5 mph - N/A   Clear
12:53 PM 77.0 °F - 59.0 °F 54% 30.09 in 10.0 mi Variable 5.8 mph - N/A   Clear
1:53 PM 80.1 °F 80.7 °F 59.0 °F 48% 30.07 in 10.0 mi East 9.2 mph - N/A   Clear
2:53 PM 84.0 °F 83.3 °F 57.0 °F 40% 30.05 in 10.0 mi North 6.9 mph - N/A   Clear
3:53 PM 86.0 °F 84.7 °F 55.9 °F 36% 30.04 in 10.0 mi Variable 6.9 mph - N/A   Clear
4:53 PM 87.1 °F 85.1 °F 54.0 °F 32% 30.02 in 10.0 mi North 15.0 mph 19.6 mph N/A   Clear
5:53 PM 86.0 °F 84.5 °F 55.0 °F 35% 30.01 in 10.0 mi North 8.1 mph - N/A   Clear
6:53 PM 84.9 °F 83.7 °F 55.9 °F 37% 30.00 in 10.0 mi NNE 11.5 mph - N/A   Clear
7:53 PM 81.0 °F 80.8 °F 55.9 °F 42% 30.00 in 10.0 mi NNE 6.9 mph - N/A   Clear
8:53 PM 70.0 °F - 55.9 °F 61% 30.02 in 10.0 mi SW 12.7 mph - N/A   Clear
9:53 PM 64.0 °F - 55.0 °F 73% 30.04 in 10.0 mi WSW 10.4 mph - N/A   Clear
10:53 PM 61.0 °F - 54.0 °F 78% 30.05 in 10.0 mi Calm Calm - N/A   Clear
11:53 PM 59.0 °F - 53.1 °F 81% 30.06 in 10.0 mi WSW 9.2 mph - N/A   Clear